Location: D�derode
(51.8092°N, 10.1065°E)
Time: 20:43:42
(UTC+00:00)

Cosmos 2228 Rocket - Pass Details

Date: 01 December 2020
Orbit: 618 x 652 km, 82.5° (Epoch: 25 January)

Event Time Altitude Azimuth Distance (km) Brightness Sun altitude
Rises 17:27:45 0° 176° (S) 2,948 6.6 -19.9°
Reaches altitude 10° 17:30:01 10° 172° (S) 2,038 5.7 -20.3°
Maximum altitude 17:34:26 55° 95° (E) 774 3.1 -21.0°
Enters shadow 17:34:33 55° 88° (E) 776 3.1 -21.0°
